Location: Ernsee
(50.8780°N, 12.0389°E)
Time: 19:02:48
(UTC+00:00)

CENTAUR R/B - Pass Details

Date: 20 January 2020
Orbit: 766 x 1422 km, 63.5° (Epoch: 07 February)

Event Time Altitude Azimuth Distance (km) Brightness Sun altitude
Exits shadow 02:43:00 37° 18° (NNE) 1,854 4.0 -40.4°
Maximum altitude 02:43:04 37° 19° (NNE) 1,855 4.0 -40.4°
Drops below altitude 10° 02:50:42 10° 85° (E) 3,423 6.0 -39.3°
Sets 02:54:02 0° 93° (E) 4,449 6.8 -38.8°
